Orbital Elements at Epoch 2459000.5 (2020-May-31.0) TDB
Reference: JPL 15 (heliocentric ecliptic J2000)
Element | Value | Uncertainty (1-sigma) | Units |
e | .2317157500388755 | 8.3942e-08 | |
a | 2.722261918573078 | 3.3737e-08 | au |
q | 2.091470956308649 | 2.287e-07 | au |
i | 12.49010487844521 | 6.6423e-06 | deg |
node | 285.8714283279306 | 3.8444e-05 | deg |
peri | 14.11307067005373 | 4.2263e-05 | deg |
M | 55.27808294917407 | 2.1833e-05 | deg |
tp | 2458748.590955159210 (2019-Sep-22.09095516) | 9.772e-05 | TDB |
period | 1640.564420912849 4.49 | 3.0498e-05 8.35e-08 | d yr |
n | .219436673995214 | 4.0793e-09 | deg/d |
Q | 3.353052880837506 | 4.1555e-08 | au |
|
| | Orbit Determination Parameters
Additional Information
|